Home   Weather   Nelson   Past weeks

Flag for Canada Past Weather in Nelson, British Columbia, Canada — Yesterday and Last 2 Weeks

Now
60 °F

Cool.


Feels Like: 61 °F
Forecast: 55 / 83 °F
Wind: 3 mph from Southwest

Location: Nelson

Current Time: Jul 22, 2017 at 1:57:54 am

Latest Report: Jul 22, 2017 at 1:00 am


Visibility: N/A

Pressure: 30.08 "Hg (28.15 "Hg at 560m altitude)

Humidity: 68%

Dew Point: 49 °F

Location of NelsonLocation

Past Weather in Nelson — Graph

°F

Nelson Temperature Yesterday

Maximum temperature yesterday: 80 °F (at 2:00 pm)
Minimum temperature yesterday: 55 °F (at 6:00 am)
Average temperature yesterday: 67 °F

High & Low Weather Summary for the Past Weeks

 TemperatureHumidityPressure
High95 °F (Jul 14, 5:00 pm)96% (Jul 11, 3:00 am)30.12 "Hg (Jul 11, 3:00 am)
Low49 °F (Jul 18, 5:00 am)12% (Jul 8, 7:00 pm)29.69 "Hg (Jul 10, 5:00 pm)
Average71 °F51%29.93 "Hg
* Reported Jul 7 12:00 am — Jul 22 12:00 am, Nelson. Weather by CustomWeather, © 2017

Note: Actual official high and low records may vary slightly from our data, if they occured in-between our weather recording intervals... More about our weather records

Advertising

Nelson Weather History for the Previous 24 Hours

Scroll right to see more
 ConditionsComfort  
Time TempWeatherWind HumidityBarometerVisibility
12:00 am
Sat, Jul 22
63 °FMild.No wind60%30.07 "HgN/A
11:00 pm
Fri, Jul 21
63 °FMild.1 mph62%30.06 "HgN/A
10:00 pm64 °FMild.1 mph56%30.05 "HgN/A
9:00 pm68 °FMild.3 mph54%30.04 "HgN/A
8:00 pm71 °FMild.2 mph52%30.02 "HgN/A
7:00 pm76 °FMild.2 mph36%30.02 "HgN/A
6:00 pm78 °FPleasantly warm.8 mph31%30.02 "HgN/A
5:00 pm77 °FPleasantly warm.8 mph33%30.02 "HgN/A
4:00 pm77 °FMild.10 mph32%30.03 "HgN/A
3:00 pm79 °FPleasantly warm.9 mph31%30.02 "HgN/A
2:00 pm80 °FPleasantly warm.8 mph30%30.02 "HgN/A
1:00 pm78 °FPleasantly warm.8 mph28%30.03 "HgN/A
12:00 pm76 °FMild.9 mph34%30.05 "HgN/A
11:00 am71 °FMild.10 mph44%30.06 "HgN/A
10:00 am68 °FMild.12 mph57%30.06 "HgN/A
9:00 am65 °FMild.7 mph62%30.07 "HgN/A
8:00 am62 °FCool.3 mph69%30.08 "HgN/A
7:00 am57 °FCool.6 mph79%30.08 "HgN/A
6:00 am55 °FCool.6 mph88%30.06 "HgN/A
5:00 am55 °FCool.6 mph87%30.04 "HgN/A
4:00 am56 °FCool.5 mph84%30.03 "HgN/A
3:00 am58 °FCool.6 mph80%30.02 "HgN/A
2:00 am58 °FCool.5 mph75%30.01 "HgN/A
1:00 am60 °FCool.2 mph66%30.01 "HgN/A
Weather by CustomWeather, © 2017

See weather overviewHow to use our weather pages